Time,TemperatureF,DewpointF,PressureIn,WindDirection,WindDirectionDegrees,WindSpeedMPH,WindSpeedGustMPH,Humidity,HourlyPrecipIn,Conditions,Clouds,dailyrainin,SoftwareType,DateUTC
2013-04-05 00:00:00,37.5,36.2,30.03,NNE,24,3.0,9.0,95,0.00,,---,0.82,VWS V14.01,2013-04-05 04:00:00,
2013-04-05 00:01:00,37.5,36.2,30.03,NNE,33,4.0,9.0,95,0.00,,---,0.82,VWS V14.01,2013-04-05 04:01:00,
2013-04-05 00:04:00,37.5,36.2,30.03,North,9,3.0,6.0,95,0.00,,---,0.00,VWS V14.01,2013-04-05 04:04:00,
2013-04-05 00:06:00,37.5,36.2,30.03,NNW,345,2.0,6.0,95,0.00,,---,0.00,VWS V14.01,2013-04-05 04:06:00,
2013-04-05 00:11:00,37.5,36.2,30.03,WNW,292,5.0,6.0,95,0.00,,---,0.00,VWS V14.01,2013-04-05 04:11:00,
2013-04-05 00:16:00,37.5,36.2,30.02,NNW,342,3.0,4.0,95,0.00,,---,0.00,VWS V14.01,2013-04-05 04:16:00,
2013-04-05 00:21:00,37.5,36.2,30.03,North,355,5.0,5.0,95,0.00,,---,0.00,VWS V14.01,2013-04-05 04:21:00,
2013-04-05 00:27:00,37.5,36.2,30.02,NNE,31,0.0,7.0,95,0.00,,---,0.00,VWS V14.01,2013-04-05 04:27:00,
2013-04-05 00:32:00,37.4,36.1,30.02,NNW,342,2.0,3.0,95,0.00,,---,0.00,VWS V14.01,2013-04-05 04:32:00,
2013-04-05 00:37:00,37.4,36.1,30.02,NNW,333,3.0,8.0,95,0.00,,---,0.00,VWS V14.01,2013-04-05 04:37:00,
2013-04-05 00:42:00,37.4,36.1,30.02,NNW,328,2.0,8.0,95,0.00,,---,0.00,VWS V14.01,2013-04-05 04:42:00,
2013-04-05 00:47:00,37.4,36.1,30.02,NW,322,6.0,6.0,95,0.00,,---,0.00,VWS V14.01,2013-04-05 04:47:00,
2013-04-05 00:52:00,37.4,36.1,30.02,NNW,329,3.0,6.0,95,0.00,,---,0.00,VWS V14.01,2013-04-05 04:52:00,
2013-04-05 00:57:00,37.3,36.0,30.03,NNE,17,2.0,6.0,95,0.00,,---,0.00,VWS V14.01,2013-04-05 04:57:00,
2013-04-05 01:03:00,37.2,35.9,30.03,NNE,16,3.0,5.0,95,0.00,,---,0.00,VWS V14.01,2013-04-05 05:03:00,
2013-04-05 01:08:00,37.2,35.9,30.03,NNW,346,6.0,8.0,95,0.00,,---,0.00,VWS V14.01,2013-04-05 05:08:00,
2013-04-05 01:13:00,37.1,35.8,30.02,NNW,333,5.0,10.0,95,0.00,,---,0.00,VWS V14.01,2013-04-05 05:13:00,
2013-04-05 01:18:00,37.1,35.8,30.02,North,360,3.0,5.0,95,0.00,,---,0.00,VWS V14.01,2013-04-05 05:18:00,
2013-04-05 01:23:00,37.1,35.8,30.02,North,355,5.0,7.0,95,0.00,,---,0.00,VWS V14.01,2013-04-05 05:23:00,
2013-04-05 01:29:00,37.1,35.8,30.03,North,360,2.0,7.0,95,0.00,,---,0.00,VWS V14.01,2013-04-05 05:29:00,
2013-04-05 01:34:00,37.2,35.9,30.03,NNW,336,1.0,8.0,95,0.00,,---,0.00,VWS V14.01,2013-04-05 05:34:00,
2013-04-05 01:39:00,37.2,35.9,30.02,North,9,2.0,8.0,95,0.00,,---,0.00,VWS V14.01,2013-04-05 05:39:00,
2013-04-05 01:45:00,37.2,35.9,30.02,NNE,33,0.0,8.0,95,0.00,,---,0.00,VWS V14.01,2013-04-05 05:45:00,
2013-04-05 01:51:00,37.2,35.9,30.02,North,360,3.0,6.0,95,0.00,,---,0.00,VWS V14.01,2013-04-05 05:51:00,
2013-04-05 01:56:00,37.2,35.9,30.02,NNE,14,3.0,8.0,95,0.00,,---,0.00,VWS V14.01,2013-04-05 05:56:00,
2013-04-05 02:02:00,37.2,35.9,30.02,North,5,2.0,4.0,95,0.00,,---,0.00,VWS V14.01,2013-04-05 06:02:00,
2013-04-05 02:07:00,37.2,35.9,30.02,North,350,4.0,7.0,95,0.00,,---,0.00,VWS V14.01,2013-04-05 06:07:00,
2013-04-05 02:12:00,37.2,35.9,30.02,NNW,327,3.0,7.0,95,0.00,,---,0.00,VWS V14.01,2013-04-05 06:12:00,
2013-04-05 02:18:00,37.2,35.9,30.02,NNW,346,0.0,3.0,95,0.00,,---,0.00,VWS V14.01,2013-04-05 06:18:00,
2013-04-05 02:23:00,37.2,35.9,30.01,NNE,23,2.0,9.0,95,0.00,,---,0.00,VWS V14.01,2013-04-05 06:23:00,
2013-04-05 02:28:00,37.2,35.9,30.01,North,350,4.0,9.0,95,0.00,,---,0.00,VWS V14.01,2013-04-05 06:28:00,
2013-04-05 02:33:00,37.2,35.9,30.01,NNW,337,1.0,7.0,95,0.00,,---,0.00,VWS V14.01,2013-04-05 06:33:00,
2013-04-05 02:39:00,37.2,35.9,30.01,NW,321,3.0,7.0,95,0.00,,---,0.00,VWS V14.01,2013-04-05 06:39:00,
2013-04-05 02:44:00,37.2,35.9,30.01,WNW,295,0.0,7.0,95,0.00,,---,0.00,VWS V14.01,2013-04-05 06:44:00,
2013-04-05 02:49:00,37.3,36.0,30.02,NW,324,0.0,2.0,95,0.00,,---,0.00,VWS V14.01,2013-04-05 06:49:00,
2013-04-05 02:54:00,37.2,35.9,30.01,NNW,335,1.0,6.0,95,0.00,,---,0.00,VWS V14.01,2013-04-05 06:54:00,
2013-04-05 02:59:00,37.2,35.9,30.02,North,5,1.0,6.0,95,0.00,,---,0.00,VWS V14.01,2013-04-05 06:59:00,
2013-04-05 03:05:00,37.2,35.9,30.02,NW,306,0.0,3.0,95,0.00,,---,0.00,VWS V14.01,2013-04-05 07:05:00,
2013-04-05 03:10:00,37.3,36.0,30.01,NNW,343,2.0,4.0,95,0.00,,---,0.00,VWS V14.01,2013-04-05 07:10:00,
2013-04-05 03:15:00,37.2,35.9,30.01,NNW,340,2.0,6.0,95,0.00,,---,0.00,VWS V14.01,2013-04-05 07:15:00,
2013-04-05 03:22:00,37.3,36.0,30.01,NNW,346,3.0,6.0,95,0.00,,---,0.00,VWS V14.01,2013-04-05 07:22:00,
2013-04-05 03:27:00,37.3,36.0,30.01,NW,309,2.0,6.0,95,0.00,,---,0.00,VWS V14.01,2013-04-05 07:27:00,
2013-04-05 03:32:00,37.3,36.0,30.02,North,355,3.0,4.0,95,0.00,,---,0.00,VWS V14.01,2013-04-05 07:32:00,
2013-04-05 03:37:00,37.3,36.0,30.01,NNW,345,4.0,6.0,95,0.00,,---,0.00,VWS V14.01,2013-04-05 07:37:00,
2013-04-05 03:43:00,37.2,35.9,30.01,NW,323,1.0,6.0,95,0.00,,---,0.00,VWS V14.01,2013-04-05 07:43:00,
2013-04-05 03:48:00,37.2,35.9,30.01,North,9,3.0,5.0,95,0.00,,---,0.00,VWS V14.01,2013-04-05 07:48:00,
2013-04-05 03:54:00,37.2,35.9,30.01,NNW,339,0.0,5.0,95,0.00,,---,0.00,VWS V14.01,2013-04-05 07:54:00,
2013-04-05 03:59:00,37.2,35.9,30.00,NW,316,4.0,6.0,95,0.00,,---,0.00,VWS V14.01,2013-04-05 07:59:00,
2013-04-05 04:05:00,37.3,36.0,30.00,North,355,3.0,6.0,95,0.00,,---,0.00,VWS V14.01,2013-04-05 08:05:00,
2013-04-05 04:10:00,37.3,36.0,30.00,NNE,16,2.0,6.0,95,0.00,,---,0.00,VWS V14.01,2013-04-05 08:10:00,
2013-04-05 04:15:00,37.3,36.0,30.00,NNW,333,3.0,7.0,95,0.00,,---,0.00,VWS V14.01,2013-04-05 08:15:00,
2013-04-05 04:20:00,37.3,36.0,30.00,NNW,339,1.0,6.0,95,0.00,,---,0.00,VWS V14.01,2013-04-05 08:20:00,
2013-04-05 04:26:00,37.4,36.1,30.00,NNE,24,1.0,7.0,95,0.00,,---,0.00,VWS V14.01,2013-04-05 08:26:00,
2013-04-05 04:32:00,37.4,36.1,29.99,NNW,335,3.0,4.0,95,0.00,,---,0.00,VWS V14.01,2013-04-05 08:32:00,
2013-04-05 04:37:00,37.4,36.1,29.99,NNW,346,3.0,5.0,95,0.00,,---,0.00,VWS V14.01,2013-04-05 08:37:00,
2013-04-05 04:43:00,37.5,36.2,29.99,North,355,5.0,8.0,95,0.00,,---,0.00,VWS V14.01,2013-04-05 08:43:00,
2013-04-05 04:48:00,37.4,36.1,29.99,NNW,327,3.0,5.0,95,0.00,,---,0.00,VWS V14.01,2013-04-05 08:48:00,
2013-04-05 04:53:00,37.4,36.1,29.98,North,360,4.0,7.0,95,0.00,,---,0.00,VWS V14.01,2013-04-05 08:53:00,
2013-04-05 04:58:00,37.5,36.2,29.98,NNW,344,5.0,8.0,95,0.00,,---,0.00,VWS V14.01,2013-04-05 08:58:00,
2013-04-05 05:04:00,37.5,36.2,29.99,NNE,21,2.0,4.0,95,0.00,,---,0.00,VWS V14.01,2013-04-05 09:04:00,
2013-04-05 05:09:00,37.5,36.2,29.99,NNW,333,5.0,7.0,95,0.00,,---,0.00,VWS V14.01,2013-04-05 09:09:00,
2013-04-05 05:14:00,37.6,36.3,29.99,NNW,347,3.0,7.0,95,0.00,,---,0.00,VWS V14.01,2013-04-05 09:14:00,
2013-04-05 05:20:00,37.7,36.4,29.98,North,9,4.0,6.0,95,0.00,,---,0.00,VWS V14.01,2013-04-05 09:20:00,
2013-04-05 05:25:00,37.7,36.4,29.99,NNW,329,3.0,7.0,95,0.00,,---,0.00,VWS V14.01,2013-04-05 09:25:00,
2013-04-05 05:30:00,37.8,36.5,29.99,North,5,2.0,7.0,95,0.00,,---,0.00,VWS V14.01,2013-04-05 09:30:00,
2013-04-05 05:37:00,37.9,36.6,30.00,ENE,57,2.0,4.0,95,0.00,,---,0.00,VWS V14.01,2013-04-05 09:37:00,
2013-04-05 05:42:00,37.9,36.6,30.01,NNW,335,1.0,4.0,95,0.00,,---,0.00,VWS V14.01,2013-04-05 09:42:00,
2013-04-05 05:47:00,38.0,36.7,30.00,North,5,0.0,2.0,95,0.00,,---,0.00,VWS V14.01,2013-04-05 09:47:00,
2013-04-05 05:53:00,38.0,36.7,30.00,NNW,342,2.0,4.0,95,0.00,,---,0.00,VWS V14.01,2013-04-05 09:53:00,
2013-04-05 05:58:00,38.1,36.8,29.99,North,355,3.0,5.0,95,0.00,,---,0.00,VWS V14.01,2013-04-05 09:58:00,
2013-04-05 06:03:00,38.0,36.7,29.99,North,9,0.0,3.0,95,0.00,,---,0.00,VWS V14.01,2013-04-05 10:03:00,
2013-04-05 06:09:00,38.0,36.7,30.00,NE,49,0.0,3.0,95,0.00,,---,0.00,VWS V14.01,2013-04-05 10:09:00,
2013-04-05 06:15:00,38.0,36.7,30.01,NE,49,0.0,3.0,95,0.00,,---,0.00,VWS V14.01,2013-04-05 10:15:00,
2013-04-05 06:20:00,38.2,36.9,30.01,NE,49,0.0,0.0,95,0.00,,---,0.00,VWS V14.01,2013-04-05 10:20:00,
2013-04-05 06:25:00,38.3,37.0,30.01,NE,49,0.0,1.0,95,0.00,,---,0.00,VWS V14.01,2013-04-05 10:25:00,
2013-04-05 06:30:00,38.3,37.0,30.01,North,355,1.0,3.0,95,0.00,,---,0.00,VWS V14.01,2013-04-05 10:30:00,
2013-04-05 06:37:00,38.4,37.1,30.01,NNW,341,2.0,3.0,95,0.00,,---,0.00,VWS V14.01,2013-04-05 10:37:00,
2013-04-05 06:42:00,38.5,37.2,30.02,NNW,335,0.0,5.0,95,0.00,,---,0.00,VWS V14.01,2013-04-05 10:42:00,
2013-04-05 06:47:00,38.5,37.2,30.02,NNW,346,2.0,3.0,95,0.00,,---,0.00,VWS V14.01,2013-04-05 10:47:00,
2013-04-05 06:53:00,38.6,37.3,30.02,NNW,340,1.0,3.0,95,0.00,,---,0.00,VWS V14.01,2013-04-05 10:53:00,
2013-04-05 06:58:00,38.7,37.4,30.02,NW,315,2.0,3.0,95,0.00,,---,0.00,VWS V14.01,2013-04-05 10:58:00,
2013-04-05 07:03:00,38.7,37.4,30.03,NNW,345,1.0,3.0,95,0.00,,---,0.00,VWS V14.01,2013-04-05 11:03:00,
2013-04-05 07:08:00,38.8,37.5,30.03,NNW,348,0.0,3.0,95,0.00,,---,0.00,VWS V14.01,2013-04-05 11:08:00,
2013-04-05 07:14:00,38.9,37.6,30.03,NNW,345,1.0,3.0,95,0.00,,---,0.00,VWS V14.01,2013-04-05 11:14:00,
2013-04-05 07:19:00,38.9,37.6,30.03,NNW,341,1.0,3.0,95,0.00,,---,0.00,VWS V14.01,2013-04-05 11:19:00,
2013-04-05 07:25:00,39.0,37.7,30.03,NNW,338,1.0,3.0,95,0.00,,---,0.00,VWS V14.01,2013-04-05 11:25:00,
2013-04-05 07:30:00,39.1,37.8,30.03,NNE,13,0.0,3.0,95,0.00,,---,0.00,VWS V14.01,2013-04-05 11:30:00,
2013-04-05 07:35:00,39.2,37.9,30.03,NNW,338,2.0,3.0,95,0.00,,---,0.00,VWS V14.01,2013-04-05 11:35:00,
2013-04-05 07:40:00,39.2,37.9,30.03,NNW,336,0.0,3.0,95,0.00,,---,0.00,VWS V14.01,2013-04-05 11:40:00,
2013-04-05 07:45:00,39.3,38.0,30.03,WNW,300,2.0,3.0,95,0.00,,---,0.00,VWS V14.01,2013-04-05 11:45:00,
2013-04-05 07:52:00,39.5,38.2,30.03,NNW,333,2.0,4.0,95,0.00,,---,0.00,VWS V14.01,2013-04-05 11:52:00,
2013-04-05 07:57:00,39.7,38.4,30.04,North,350,2.0,4.0,95,0.00,,---,0.00,VWS V14.01,2013-04-05 11:57:00,
2013-04-05 08:02:00,39.9,38.6,30.04,NNW,346,1.0,4.0,95,0.00,,---,0.00,VWS V14.01,2013-04-05 12:02:00,
2013-04-05 08:08:00,40.0,38.7,30.04,North,5,0.0,4.0,95,0.00,,---,0.00,VWS V14.01,2013-04-05 12:08:00,
2013-04-05 08:13:00,40.3,39.0,30.04,NNW,327,4.0,4.0,95,0.00,,---,0.00,VWS V14.01,2013-04-05 12:13:00,
2013-04-05 08:18:00,40.4,39.1,30.04,NNW,340,4.0,6.0,95,0.00,,---,0.00,VWS V14.01,2013-04-05 12:18:00,
2013-04-05 08:23:00,40.5,39.2,30.05,NNW,343,2.0,6.0,95,0.00,,---,0.00,VWS V14.01,2013-04-05 12:23:00,
2013-04-05 08:29:00,40.7,39.4,30.05,NW,323,3.0,6.0,95,0.00,,---,0.00,VWS V14.01,2013-04-05 12:29:00,
2013-04-05 08:34:00,40.9,39.6,30.05,NNW,339,2.0,4.0,95,0.00,,---,0.00,VWS V14.01,2013-04-05 12:34:00,
2013-04-05 08:39:00,41.0,39.7,30.05,NW,325,3.0,6.0,95,0.00,,---,0.00,VWS V14.01,2013-04-05 12:39:00,
2013-04-05 08:44:00,41.1,39.8,30.05,North,360,2.0,6.0,95,0.00,,---,0.00,VWS V14.01,2013-04-05 12:44:00,
2013-04-05 08:49:00,41.3,40.0,30.04,North,355,0.0,5.0,95,0.00,,---,0.00,VWS V14.01,2013-04-05 12:49:00,
2013-04-05 08:55:00,41.4,40.1,30.05,NNW,328,3.0,6.0,95,0.00,,---,0.00,VWS V14.01,2013-04-05 12:55:00,
2013-04-05 09:01:00,41.5,40.2,30.05,NNW,330,0.0,6.0,95,0.00,,---,0.00,VWS V14.01,2013-04-05 13:01:00,
2013-04-05 09:06:00,41.5,40.2,30.05,NNE,23,2.0,6.0,95,0.00,,---,0.00,VWS V14.01,2013-04-05 13:06:00,
2013-04-05 09:11:00,41.9,40.6,30.05,NNE,29,3.0,6.0,95,0.00,,---,0.00,VWS V14.01,2013-04-05 13:11:00,
2013-04-05 09:17:00,42.3,41.0,30.06,North,5,0.0,1.0,95,0.00,,---,0.00,VWS V14.01,2013-04-05 13:17:00,
2013-04-05 09:22:00,42.5,41.2,30.06,NNE,14,1.0,5.0,95,0.00,,---,0.00,VWS V14.01,2013-04-05 13:22:00,
2013-04-05 09:28:00,42.9,41.6,30.06,NNW,338,1.0,5.0,95,0.00,,---,0.00,VWS V14.01,2013-04-05 13:28:00,
2013-04-05 09:33:00,43.1,41.8,30.05,NW,315,6.0,6.0,95,0.00,,---,0.00,VWS V14.01,2013-04-05 13:33:00,
2013-04-05 09:39:00,43.4,42.1,30.05,NNW,333,6.0,7.0,95,0.00,,---,0.00,VWS V14.01,2013-04-05 13:39:00,
2013-04-05 09:44:00,43.5,42.2,30.05,North,9,2.0,7.0,95,0.00,,---,0.00,VWS V14.01,2013-04-05 13:44:00,
2013-04-05 09:50:00,43.9,42.6,30.05,NNW,346,2.0,5.0,95,0.00,,---,0.00,VWS V14.01,2013-04-05 13:50:00,
2013-04-05 09:55:00,44.2,42.6,30.05,NNW,340,2.0,6.0,94,0.00,,---,0.00,VWS V14.01,2013-04-05 13:55:00,
2013-04-05 10:00:00,44.5,42.9,30.05,NNW,331,1.0,7.0,94,0.00,,---,0.00,VWS V14.01,2013-04-05 14:00:00,
2013-04-05 10:06:00,45.4,43.8,30.05,NNW,332,2.0,8.0,94,0.00,,---,0.00,VWS V14.01,2013-04-05 14:06:00,
2013-04-05 10:12:00,45.6,43.7,30.06,NNE,31,3.0,8.0,93,0.00,,---,0.00,VWS V14.01,2013-04-05 14:12:00,
2013-04-05 10:18:00,45.7,43.5,30.06,NW,325,3.0,6.0,92,0.00,,---,0.00,VWS V14.01,2013-04-05 14:18:00,
2013-04-05 10:23:00,46.0,43.8,30.06,ENE,58,3.0,8.0,92,0.00,,---,0.00,VWS V14.01,2013-04-05 14:23:00,
2013-04-05 10:28:00,46.3,44.1,30.06,NNE,24,3.0,10.0,92,0.00,,---,0.00,VWS V14.01,2013-04-05 14:28:00,
2013-04-05 10:35:00,46.9,44.7,30.06,NNE,30,6.0,7.0,92,0.00,,---,0.00,VWS V14.01,2013-04-05 14:35:00,
2013-04-05 10:40:00,47.1,44.9,30.06,NNW,338,7.0,8.0,92,0.00,,---,0.00,VWS V14.01,2013-04-05 14:40:00,
2013-04-05 10:45:00,47.0,44.5,30.06,North,355,3.0,8.0,91,0.00,,---,0.00,VWS V14.01,2013-04-05 14:45:00,
2013-04-05 10:51:00,47.4,44.9,30.06,NNW,339,2.0,7.0,91,0.00,,---,0.00,VWS V14.01,2013-04-05 14:51:00,
2013-04-05 10:57:00,48.1,45.6,30.06,NE,40,1.0,7.0,91,0.00,,---,0.00,VWS V14.01,2013-04-05 14:57:00,
2013-04-05 11:02:00,48.4,45.3,30.06,NNE,27,6.0,9.0,89,0.00,,---,0.00,VWS V14.01,2013-04-05 15:02:00,
2013-04-05 11:07:00,49.1,46.3,30.06,NE,56,1.0,9.0,90,0.00,,---,0.00,VWS V14.01,2013-04-05 15:07:00,
2013-04-05 11:12:00,50.0,46.9,30.06,NW,320,5.0,9.0,89,0.00,,---,0.00,VWS V14.01,2013-04-05 15:12:00,
2013-04-05 11:17:00,50.3,47.2,30.06,North,5,3.0,7.0,89,0.00,,---,0.00,VWS V14.01,2013-04-05 15:17:00,
2013-04-05 11:23:00,50.3,46.9,30.06,NNW,347,3.0,10.0,88,0.00,,---,0.00,VWS V14.01,2013-04-05 15:23:00,
2013-04-05 11:28:00,51.1,47.7,30.06,NNW,344,0.0,10.0,88,0.00,,---,0.00,VWS V14.01,2013-04-05 15:28:00,
2013-04-05 11:34:00,51.5,47.5,30.06,North,360,5.0,8.0,86,0.00,,---,0.00,VWS V14.01,2013-04-05 15:34:00,
2013-04-05 11:39:00,51.9,47.5,30.06,ENE,71,5.0,8.0,85,0.00,,---,0.00,VWS V14.01,2013-04-05 15:39:00,
2013-04-05 11:45:00,52.1,46.5,30.06,SSE,161,0.0,8.0,81,0.00,,---,0.00,VWS V14.01,2013-04-05 15:45:00,
2013-04-05 11:50:00,52.1,47.4,30.06,NW,323,2.0,7.0,84,0.00,,---,0.00,VWS V14.01,2013-04-05 15:50:00,
2013-04-05 11:55:00,52.3,47.0,30.06,NW,319,3.0,8.0,82,0.00,,---,0.00,VWS V14.01,2013-04-05 15:55:00,
2013-04-05 12:00:00,52.5,47.8,30.06,NNW,338,3.0,8.0,84,0.00,,---,0.00,VWS V14.01,2013-04-05 16:00:00,
2013-04-05 12:06:00,52.6,47.3,30.06,ENE,64,1.0,8.0,82,0.00,,---,0.00,VWS V14.01,2013-04-05 16:06:00,
2013-04-05 12:11:00,52.3,46.7,30.06,ENE,62,1.0,8.0,81,0.00,,---,0.00,VWS V14.01,2013-04-05 16:11:00,
2013-04-05 12:17:00,53.0,47.7,30.06,East,88,0.0,6.0,82,0.00,,---,0.00,VWS V14.01,2013-04-05 16:17:00,
2013-04-05 12:22:00,54.0,49.0,30.06,NNE,25,2.0,6.0,83,0.00,,---,0.00,VWS V14.01,2013-04-05 16:22:00,
2013-04-05 12:27:00,55.4,49.3,30.06,NNE,22,3.0,6.0,80,0.00,,---,0.00,VWS V14.01,2013-04-05 16:27:00,
2013-04-05 12:33:00,56.7,49.9,30.05,NNW,340,4.0,7.0,78,0.00,,---,0.00,VWS V14.01,2013-04-05 16:33:00,
2013-04-05 12:38:00,57.1,50.7,30.05,NNE,31,2.0,7.0,79,0.00,,---,0.00,VWS V14.01,2013-04-05 16:38:00,
2013-04-05 12:43:00,56.4,47.5,30.04,NW,313,4.0,7.0,72,0.01,,---,0.01,VWS V14.01,2013-04-05 16:43:00,
2013-04-05 12:49:00,56.0,48.9,30.04,NNW,348,2.0,7.0,77,0.01,,---,0.01,VWS V14.01,2013-04-05 16:49:00,
2013-04-05 12:55:00,56.0,48.5,30.04,NE,44,2.0,7.0,76,0.01,,---,0.01,VWS V14.01,2013-04-05 16:55:00,
2013-04-05 13:00:00,55.8,48.7,30.04,NNW,334,4.0,8.0,77,0.01,,---,0.01,VWS V14.01,2013-04-05 17:00:00,
2013-04-05 13:06:00,55.9,48.1,30.04,NE,36,1.0,7.0,75,0.01,,---,0.01,VWS V14.01,2013-04-05 17:06:00,
2013-04-05 13:12:00,57.8,50.3,30.03,NW,319,2.0,9.0,76,0.01,,---,0.01,VWS V14.01,2013-04-05 17:12:00,
2013-04-05 13:17:00,58.3,49.7,30.03,WNW,300,1.0,5.0,73,0.01,,---,0.01,VWS V14.01,2013-04-05 17:17:00,
2013-04-05 13:22:00,57.9,49.7,30.03,North,360,4.0,5.0,74,0.01,,---,0.01,VWS V14.01,2013-04-05 17:22:00,
2013-04-05 13:27:00,58.4,48.7,30.03,NNW,335,2.0,6.0,70,0.01,,---,0.01,VWS V14.01,2013-04-05 17:27:00,
2013-04-05 13:32:00,59.4,50.8,30.03,NNW,334,1.0,6.0,73,0.01,,---,0.01,VWS V14.01,2013-04-05 17:32:00,
2013-04-05 13:37:00,60.7,49.7,30.03,NW,315,2.0,6.0,67,0.01,,---,0.01,VWS V14.01,2013-04-05 17:37:00,
2013-04-05 13:43:00,60.3,48.9,30.03,North,355,6.0,11.0,66,0.01,,---,0.01,VWS V14.01,2013-04-05 17:43:00,
2013-04-05 13:48:00,58.3,47.4,30.02,North,355,2.0,10.0,67,0.00,,---,0.01,VWS V14.01,2013-04-05 17:48:00,
2013-04-05 13:53:00,57.7,46.8,30.02,NNE,26,2.0,10.0,67,0.00,,---,0.01,VWS V14.01,2013-04-05 17:53:00,
2013-04-05 13:59:00,59.0,50.4,30.02,NNW,339,2.0,10.0,73,0.00,,---,0.01,VWS V14.01,2013-04-05 17:59:00,
2013-04-05 14:04:00,60.0,48.6,30.02,North,5,4.0,8.0,66,0.00,,---,0.01,VWS V14.01,2013-04-05 18:04:00,
2013-04-05 14:09:00,60.0,48.6,30.01,NNW,332,3.0,8.0,66,0.00,,---,0.01,VWS V14.01,2013-04-05 18:09:00,
2013-04-05 14:14:00,58.8,47.1,30.01,NE,42,6.0,9.0,65,0.00,,---,0.01,VWS V14.01,2013-04-05 18:14:00,
2013-04-05 14:19:00,58.9,48.0,30.01,North,9,6.0,7.0,67,0.00,,---,0.01,VWS V14.01,2013-04-05 18:19:00,
2013-04-05 14:25:00,60.2,49.6,30.02,NNE,24,1.0,9.0,68,0.00,,---,0.01,VWS V14.01,2013-04-05 18:25:00,
2013-04-05 14:30:00,60.2,48.8,30.01,NNE,12,1.0,9.0,66,0.00,,---,0.01,VWS V14.01,2013-04-05 18:30:00,
2013-04-05 14:35:00,61.2,49.8,30.01,NNE,14,4.0,7.0,66,0.00,,---,0.01,VWS V14.01,2013-04-05 18:35:00,
2013-04-05 14:41:00,61.5,48.4,30.01,NW,312,5.0,8.0,62,0.00,,---,0.01,VWS V14.01,2013-04-05 18:41:00,
2013-04-05 14:46:00,61.5,47.9,30.01,NNW,333,3.0,8.0,61,0.00,,---,0.01,VWS V14.01,2013-04-05 18:46:00,
2013-04-05 14:51:00,60.7,48.0,30.01,WNW,302,8.0,8.0,63,0.00,,---,0.01,VWS V14.01,2013-04-05 18:51:00,
2013-04-05 14:56:00,59.8,47.6,30.01,NNW,338,7.0,10.0,64,0.00,,---,0.01,VWS V14.01,2013-04-05 18:56:00,
2013-04-05 15:02:00,59.6,47.8,30.01,NNE,12,1.0,4.0,65,0.00,,---,0.01,VWS V14.01,2013-04-05 19:02:00,
2013-04-05 15:07:00,61.2,50.2,30.01,NE,35,3.0,9.0,67,0.00,,---,0.01,VWS V14.01,2013-04-05 19:07:00,
2013-04-05 15:12:00,61.8,48.2,30.01,NE,40,2.0,9.0,61,0.00,,---,0.01,VWS V14.01,2013-04-05 19:12:00,
2013-04-05 15:17:00,61.5,45.7,30.00,NNE,29,3.0,4.0,56,0.00,,---,0.01,VWS V14.01,2013-04-05 19:17:00,
2013-04-05 15:23:00,61.4,47.4,30.00,WNW,303,6.0,11.0,60,0.00,,---,0.01,VWS V14.01,2013-04-05 19:23:00,
2013-04-05 15:28:00,61.9,47.9,30.00,NNE,26,3.0,11.0,60,0.00,,---,0.01,VWS V14.01,2013-04-05 19:28:00,
2013-04-05 15:33:00,62.2,47.3,30.00,North,5,4.0,8.0,58,0.00,,---,0.01,VWS V14.01,2013-04-05 19:33:00,
2013-04-05 15:38:00,62.4,47.9,30.00,West,270,9.0,11.0,59,0.00,,---,0.01,VWS V14.01,2013-04-05 19:38:00,
2013-04-05 15:44:00,63.5,48.9,29.99,WNW,283,4.0,11.0,59,0.00,,---,0.01,VWS V14.01,2013-04-05 19:44:00,
2013-04-05 15:49:00,62.9,47.0,29.99,NNW,341,4.0,9.0,56,0.00,,---,0.01,VWS V14.01,2013-04-05 19:49:00,
2013-04-05 15:55:00,62.6,47.6,29.99,North,351,5.0,9.0,58,0.00,,---,0.01,VWS V14.01,2013-04-05 19:55:00,
2013-04-05 16:00:00,61.8,47.3,29.99,NW,304,1.0,9.0,59,0.00,,---,0.01,VWS V14.01,2013-04-05 20:00:00,
2013-04-05 16:05:00,63.6,47.6,29.99,WNW,290,5.0,9.0,56,0.00,,---,0.01,VWS V14.01,2013-04-05 20:05:00,
2013-04-05 16:10:00,63.6,46.7,29.98,WNW,294,0.0,9.0,54,0.00,,---,0.01,VWS V14.01,2013-04-05 20:10:00,
2013-04-05 16:16:00,63.2,47.3,29.98,WNW,284,4.0,9.0,56,0.00,,---,0.01,VWS V14.01,2013-04-05 20:16:00,
2013-04-05 16:21:00,64.0,47.5,29.98,NW,317,8.0,9.0,55,0.00,,---,0.01,VWS V14.01,2013-04-05 20:21:00,
2013-04-05 16:26:00,63.8,47.8,29.98,NNE,13,0.0,9.0,56,0.00,,---,0.01,VWS V14.01,2013-04-05 20:26:00,
2013-04-05 16:32:00,63.7,47.2,29.98,NNW,337,7.0,10.0,55,0.00,,---,0.01,VWS V14.01,2013-04-05 20:32:00,
2013-04-05 16:37:00,63.1,46.2,29.98,North,355,4.0,10.0,54,0.00,,---,0.01,VWS V14.01,2013-04-05 20:37:00,
2013-04-05 16:42:00,62.9,46.0,29.98,NNW,332,2.0,10.0,54,0.00,,---,0.01,VWS V14.01,2013-04-05 20:42:00,
2013-04-05 16:47:00,62.8,45.9,29.98,NNW,348,3.0,9.0,54,0.00,,---,0.01,VWS V14.01,2013-04-05 20:47:00,
2013-04-05 16:53:00,63.2,45.8,29.98,ENE,58,2.0,9.0,53,0.00,,---,0.01,VWS V14.01,2013-04-05 20:53:00,
2013-04-05 16:58:00,63.7,46.8,29.98,NNW,348,3.0,9.0,54,0.00,,---,0.01,VWS V14.01,2013-04-05 20:58:00,
2013-04-05 17:03:00,64.2,45.7,29.98,North,5,3.0,5.0,51,0.00,,---,0.01,VWS V14.01,2013-04-05 21:03:00,
2013-04-05 17:08:00,63.8,45.9,29.98,North,5,5.0,7.0,52,0.00,,---,0.01,VWS V14.01,2013-04-05 21:08:00,
2013-04-05 17:13:00,63.1,46.2,29.99,NW,318,7.0,7.0,54,0.00,,---,0.01,VWS V14.01,2013-04-05 21:13:00,
2013-04-05 17:19:00,63.6,46.7,29.99,NNW,345,3.0,7.0,54,0.00,,---,0.01,VWS V14.01,2013-04-05 21:19:00,
2013-04-05 17:24:00,63.7,45.2,29.99,NNW,340,8.0,10.0,51,0.00,,---,0.01,VWS V14.01,2013-04-05 21:24:00,
2013-04-05 17:29:00,63.8,46.4,29.99,NNW,348,3.0,10.0,53,0.00,,---,0.01,VWS V14.01,2013-04-05 21:29:00,
2013-04-05 17:34:00,63.7,45.8,29.99,WNW,295,0.0,10.0,52,0.00,,---,0.01,VWS V14.01,2013-04-05 21:34:00,
2013-04-05 17:40:00,63.8,46.4,29.99,NW,304,4.0,10.0,53,0.00,,---,0.01,VWS V14.01,2013-04-05 21:40:00,
2013-04-05 17:45:00,63.1,46.7,29.99,North,355,1.0,10.0,55,0.00,,---,0.01,VWS V14.01,2013-04-05 21:45:00,
2013-04-05 17:50:00,63.8,46.4,29.99,WNW,294,3.0,7.0,53,0.00,,---,0.01,VWS V14.01,2013-04-05 21:50:00,
2013-04-05 17:56:00,63.8,45.9,29.99,North,355,1.0,7.0,52,0.00,,---,0.01,VWS V14.01,2013-04-05 21:56:00,
2013-04-05 18:02:00,63.4,45.0,29.99,NNE,22,1.0,1.0,51,0.00,,---,0.01,VWS V14.01,2013-04-05 22:02:00,
2013-04-05 18:07:00,63.8,45.9,29.99,NNW,327,4.0,4.0,52,0.00,,---,0.01,VWS V14.01,2013-04-05 22:07:00,
2013-04-05 18:12:00,63.9,45.4,29.99,NNW,338,5.0,7.0,51,0.00,,---,0.01,VWS V14.01,2013-04-05 22:12:00,
2013-04-05 18:17:00,63.9,46.0,29.99,NW,320,4.0,5.0,52,0.00,,---,0.01,VWS V14.01,2013-04-05 22:17:00,
2013-04-05 18:22:00,63.8,45.3,30.00,NW,320,6.0,7.0,51,0.00,,---,0.01,VWS V14.01,2013-04-05 22:22:00,
2013-04-05 18:28:00,63.4,43.9,30.00,NW,310,1.0,9.0,49,0.00,,---,0.01,VWS V14.01,2013-04-05 22:28:00,
2013-04-05 18:33:00,63.4,44.5,30.00,NW,320,6.0,6.0,50,0.00,,---,0.01,VWS V14.01,2013-04-05 22:33:00,
2013-04-05 18:38:00,63.2,43.7,30.00,NNW,341,5.0,8.0,49,0.00,,---,0.01,VWS V14.01,2013-04-05 22:38:00,
2013-04-05 18:43:00,63.1,44.2,30.00,NNW,332,4.0,9.0,50,0.00,,---,0.01,VWS V14.01,2013-04-05 22:43:00,
2013-04-05 18:48:00,63.0,43.6,30.00,NW,305,0.0,6.0,49,0.00,,---,0.01,VWS V14.01,2013-04-05 22:48:00,
2013-04-05 18:54:00,63.1,44.7,30.00,North,360,2.0,6.0,51,0.00,,---,0.01,VWS V14.01,2013-04-05 22:54:00,
2013-04-05 18:59:00,62.9,44.0,30.00,NNW,327,0.0,6.0,50,0.00,,---,0.01,VWS V14.01,2013-04-05 22:59:00,
2013-04-05 19:04:00,62.7,42.8,30.00,NNW,336,3.0,7.0,48,0.00,,---,0.01,VWS V14.01,2013-04-05 23:04:00,
2013-04-05 19:10:00,62.3,42.9,30.00,NW,310,2.0,7.0,49,0.00,,---,0.01,VWS V14.01,2013-04-05 23:10:00,
2013-04-05 19:15:00,62.1,43.3,30.00,NNW,345,1.0,7.0,50,0.00,,---,0.01,VWS V14.01,2013-04-05 23:15:00,
2013-04-05 19:20:00,61.9,42.0,30.00,NW,320,1.0,5.0,48,0.00,,---,0.01,VWS V14.01,2013-04-05 23:20:00,
2013-04-05 19:25:00,61.3,42.0,30.01,NNW,339,1.0,5.0,49,0.00,,---,0.01,VWS V14.01,2013-04-05 23:25:00,
2013-04-05 19:30:00,60.8,42.1,30.01,NNW,340,0.0,5.0,50,0.00,,---,0.01,VWS V14.01,2013-04-05 23:30:00,
2013-04-05 19:35:00,60.2,41.5,30.01,North,349,0.0,2.0,50,0.00,,---,0.01,VWS V14.01,2013-04-05 23:35:00,
2013-04-05 19:41:00,59.7,41.6,30.01,North,355,0.0,3.0,51,0.00,,---,0.01,VWS V14.01,2013-04-05 23:41:00,
2013-04-05 19:47:00,58.8,42.7,30.01,North,355,0.0,0.0,55,0.00,,---,0.01,VWS V14.01,2013-04-05 23:47:00,
2013-04-05 19:52:00,57.3,42.7,30.01,North,355,0.0,0.0,58,0.00,,---,0.01,VWS V14.01,2013-04-05 23:52:00,
2013-04-05 19:57:00,55.9,43.1,30.01,North,355,0.0,0.0,62,0.00,,---,0.01,VWS V14.01,2013-04-05 23:57:00,
2013-04-05 20:02:00,55.0,43.1,30.02,North,355,0.0,0.0,64,0.00,,---,0.01,VWS V14.01,2013-04-06 00:02:00,
2013-04-05 20:07:00,54.1,43.4,30.02,North,355,0.0,0.0,67,0.00,,---,0.01,VWS V14.01,2013-04-06 00:07:00,
2013-04-05 20:13:00,53.4,43.1,30.02,North,355,0.0,0.0,68,0.00,,---,0.01,VWS V14.01,2013-04-06 00:13:00,
2013-04-05 20:18:00,52.8,42.9,30.02,North,355,0.0,0.0,69,0.00,,---,0.01,VWS V14.01,2013-04-06 00:18:00,
2013-04-05 20:23:00,52.4,42.9,30.02,North,355,0.0,0.0,70,0.00,,---,0.01,VWS V14.01,2013-04-06 00:23:00,
2013-04-05 20:28:00,52.6,43.1,30.03,North,355,0.0,0.0,70,0.00,,---,0.01,VWS V14.01,2013-04-06 00:28:00,
2013-04-05 20:33:00,51.5,42.8,30.03,North,355,0.0,1.0,72,0.00,,---,0.01,VWS V14.01,2013-04-06 00:33:00,
2013-04-05 20:38:00,51.2,42.5,30.04,North,355,0.0,1.0,72,0.00,,---,0.01,VWS V14.01,2013-04-06 00:38:00,
2013-04-05 20:43:00,50.4,42.4,30.04,North,355,0.0,1.0,74,0.00,,---,0.01,VWS V14.01,2013-04-06 00:43:00,
2013-04-05 20:49:00,50.3,42.7,30.04,North,355,0.0,0.0,75,0.00,,---,0.01,VWS V14.01,2013-04-06 00:49:00,
2013-04-05 20:54:00,50.0,42.4,30.05,North,355,0.0,0.0,75,0.00,,---,0.01,VWS V14.01,2013-04-06 00:54:00,
2013-04-05 20:59:00,49.5,42.3,30.05,North,355,0.0,0.0,76,0.00,,---,0.01,VWS V14.01,2013-04-06 00:59:00,
2013-04-05 21:05:00,49.2,42.0,30.06,North,355,0.0,0.0,76,0.00,,---,0.01,VWS V14.01,2013-04-06 01:05:00,
2013-04-05 21:10:00,48.7,42.2,30.06,North,355,0.0,0.0,78,0.00,,---,0.01,VWS V14.01,2013-04-06 01:10:00,
2013-04-05 21:15:00,48.5,42.3,30.06,North,355,0.0,0.0,79,0.00,,---,0.01,VWS V14.01,2013-04-06 01:15:00,
2013-04-05 21:21:00,48.0,41.8,30.07,North,355,0.0,0.0,79,0.00,,---,0.01,VWS V14.01,2013-04-06 01:21:00,
2013-04-05 21:26:00,47.4,41.5,30.07,North,355,0.0,0.0,80,0.00,,---,0.01,VWS V14.01,2013-04-06 01:26:00,
2013-04-05 21:32:00,46.9,41.4,30.08,North,355,0.0,0.0,81,0.00,,---,0.01,VWS V14.01,2013-04-06 01:32:00,
2013-04-05 21:37:00,46.6,41.4,30.08,North,355,0.0,0.0,82,0.00,,---,0.01,VWS V14.01,2013-04-06 01:37:00,
2013-04-05 21:43:00,46.3,41.4,30.08,North,355,0.0,0.0,83,0.00,,---,0.01,VWS V14.01,2013-04-06 01:43:00,
2013-04-05 21:48:00,46.2,41.3,30.09,North,355,0.0,0.0,83,0.00,,---,0.01,VWS V14.01,2013-04-06 01:48:00,
2013-04-05 21:53:00,46.0,41.1,30.09,North,355,0.0,0.0,83,0.00,,---,0.01,VWS V14.01,2013-04-06 01:53:00,
2013-04-05 21:58:00,45.8,40.9,30.09,North,355,0.0,0.0,83,0.00,,---,0.01,VWS V14.01,2013-04-06 01:58:00,
2013-04-05 22:04:00,45.6,41.0,30.09,North,355,0.0,0.0,84,0.00,,---,0.01,VWS V14.01,2013-04-06 02:04:00,
2013-04-05 22:09:00,45.5,41.0,30.09,North,355,0.0,0.0,84,0.00,,---,0.01,VWS V14.01,2013-04-06 02:09:00,
2013-04-05 22:14:00,45.4,40.9,30.10,North,355,0.0,0.0,84,0.00,,---,0.01,VWS V14.01,2013-04-06 02:14:00,
2013-04-05 22:20:00,45.2,40.7,30.09,North,355,0.0,0.0,84,0.00,,---,0.01,VWS V14.01,2013-04-06 02:20:00,
2013-04-05 22:25:00,45.1,40.6,30.10,North,355,0.0,0.0,84,0.00,,---,0.01,VWS V14.01,2013-04-06 02:25:00,
2013-04-05 22:30:00,44.9,40.4,30.10,North,355,0.0,0.0,84,0.00,,---,0.01,VWS V14.01,2013-04-06 02:30:00,
2013-04-05 22:35:00,44.7,40.2,30.10,North,355,0.0,0.0,84,0.00,,---,0.01,VWS V14.01,2013-04-06 02:35:00,
2013-04-05 22:40:00,44.6,39.8,30.10,North,355,0.0,0.0,83,0.00,,---,0.01,VWS V14.01,2013-04-06 02:40:00,
2013-04-05 22:45:00,44.4,39.6,30.10,North,355,0.0,1.0,83,0.00,,---,0.01,VWS V14.01,2013-04-06 02:45:00,
2013-04-05 22:50:00,44.9,40.1,30.10,North,355,0.0,1.0,83,0.00,,---,0.01,VWS V14.01,2013-04-06 02:50:00,
2013-04-05 22:55:00,45.6,39.8,30.10,North,355,0.0,1.0,80,0.00,,---,0.01,VWS V14.01,2013-04-06 02:55:00,
2013-04-05 23:01:00,45.5,39.7,30.10,North,355,0.0,1.0,80,0.00,,---,0.01,VWS V14.01,2013-04-06 03:01:00,
2013-04-05 23:07:00,45.3,39.5,30.10,North,355,0.0,0.0,80,0.00,,---,0.01,VWS V14.01,2013-04-06 03:07:00,
2013-04-05 23:12:00,45.3,39.5,30.10,North,355,0.0,0.0,80,0.00,,---,0.01,VWS V14.01,2013-04-06 03:12:00,
2013-04-05 23:17:00,45.1,39.9,30.10,North,355,0.0,0.0,82,0.00,,---,0.01,VWS V14.01,2013-04-06 03:17:00,
2013-04-05 23:22:00,45.0,40.2,30.10,North,355,0.0,0.0,83,0.00,,---,0.01,VWS V14.01,2013-04-06 03:22:00,
2013-04-05 23:28:00,44.8,40.3,30.10,North,355,0.0,0.0,84,0.00,,---,0.01,VWS V14.01,2013-04-06 03:28:00,
2013-04-05 23:33:00,44.0,39.8,30.10,North,355,0.0,0.0,85,0.00,,---,0.01,VWS V14.01,2013-04-06 03:33:00,
2013-04-05 23:38:00,43.7,39.8,30.10,North,355,0.0,0.0,86,0.00,,---,0.01,VWS V14.01,2013-04-06 03:38:00,
2013-04-05 23:44:00,43.6,40.0,30.10,North,355,0.0,0.0,87,0.00,,---,0.01,VWS V14.01,2013-04-06 03:44:00,
2013-04-05 23:49:00,43.6,40.0,30.10,North,355,0.0,0.0,87,0.00,,---,0.01,VWS V14.01,2013-04-06 03:49:00,
2013-04-05 23:55:00,43.7,40.1,30.10,North,355,0.0,0.0,87,0.00,,---,0.01,VWS V14.01,2013-04-06 03:55:00,